• în Republica Moldova
  • Lista ţărilor
  • Pe 7 zile
  • Temperatura apei
  • Hartă satelitară
  • Meteo pe hartă
  • Widget-uri
  • user-avatar
    Intrare

    Meteo pe oră la Vlorë

    Astăzi, 29 Mai, Luni

    Timp Temperatura Precipitaţii Vânt Presiune Umiditate
    00:00 +18°C° 0 mm 3 m/s 763 mmHg 74%
    01:00 +17°C° 0 mm 2 m/s 763 mmHg 76%
    02:00 +17°C° 0 mm 2 m/s 763 mmHg 76%
    03:00 +17°C° 0 mm 2 m/s 763 mmHg 76%
    04:00 +18°C° 0 mm 1 m/s 763 mmHg 76%
    05:00 +19°C° 0 mm 1 m/s 763 mmHg 72%
    06:00 +21°C° 0 mm 1 m/s 763 mmHg 68%
    07:00 +23°C° 0 mm 1 m/s 762 mmHg 62%
    08:00 +24°C° 0 mm 1 m/s 762 mmHg 57%
    09:00 +25°C° 0 mm 1 m/s 763 mmHg 51%
    10:00 +27°C° 0 mm 1 m/s 763 mmHg 46%
    11:00 +27°C° 0 mm 2 m/s 762 mmHg 47%
    12:00 +27°C° 0 mm 2 m/s 762 mmHg 48%
    13:00 +27°C° 0 mm 3 m/s 762 mmHg 48%
    14:00 +26°C° 0,1 mm 3 m/s 762 mmHg 50%
    15:00 +26°C° 0,1 mm 3 m/s 762 mmHg 52%
    16:00 +25°C° 0,1 mm 3 m/s 762 mmHg 54%
    17:00 +24°C° 0,1 mm 2 m/s 761 mmHg 60%
    18:00 +21°C° 0,1 mm 2 m/s 761 mmHg 67%
    19:00 +19°C° 0,1 mm 2 m/s 761 mmHg 73%
    20:00 +20°C° 0 mm 1 m/s 762 mmHg 75%
    21:00 +19°C° 0 mm 1 m/s 762 mmHg 76%
    22:00 +19°C° 0 mm 1 m/s 762 mmHg 78%
    23:00 +18°C° 0 mm 1 m/s 762 mmHg 79%

    Mâine, 30 Mai, Marţi

    Timp Temperatura Precipitaţii Vânt Presiune Umiditate
    00:00 +18°C° 0 mm 1 m/s 762 mmHg 79%
    01:00 +18°C° 0 mm 1 m/s 762 mmHg 80%
    02:00 +18°C° 0 mm 1 m/s 762 mmHg 81%
    03:00 +18°C° 0 mm 1 m/s 762 mmHg 82%
    04:00 +16°C° 0 mm 1 m/s 762 mmHg 82%
    05:00 +19°C° 0 mm 1 m/s 762 mmHg 75%
    06:00 +21°C° 0 mm 1 m/s 762 mmHg 67%
    07:00 +23°C° 0 mm 1 m/s 762 mmHg 60%
    08:00 +24°C° 0 mm 1 m/s 762 mmHg 56%
    09:00 +25°C° 0 mm 1 m/s 762 mmHg 52%
    10:00 +26°C° 0 mm 2 m/s 763 mmHg 48%
    11:00 +27°C° 0,1 mm 2 m/s 763 mmHg 47%
    12:00 +27°C° 0,1 mm 2 m/s 763 mmHg 46%
    13:00 +27°C° 0,1 mm 2 m/s 763 mmHg 45%
    14:00 +27°C° 0 mm 3 m/s 763 mmHg 44%
    15:00 +26°C° 0 mm 3 m/s 763 mmHg 44%
    16:00 +26°C° 0 mm 3 m/s 762 mmHg 43%
    17:00 +24°C° 0 mm 3 m/s 763 mmHg 51%
    18:00 +21°C° 0 mm 2 m/s 763 mmHg 59%
    19:00 +19°C° 0 mm 2 m/s 763 mmHg 67%
    20:00 +18°C° 0 mm 2 m/s 763 mmHg 66%
    21:00 +18°C° 0 mm 2 m/s 764 mmHg 66%
    22:00 +17°C° 0 mm 2 m/s 764 mmHg 65%
    23:00 +17°C° 0 mm 2 m/s 764 mmHg 66%

    Poimâine, 31 Mai, Miercuri

    Timp Temperatura Precipitaţii Vânt Presiune Umiditate
    00:00 +17°C° 0 mm 2 m/s 764 mmHg 67%
    01:00 +17°C° 0 mm 2 m/s 764 mmHg 68%
    02:00 +17°C° 0 mm 2 m/s 764 mmHg 69%
    03:00 +16°C° 0 mm 1 m/s 764 mmHg 69%
    04:00 +16°C° 0 mm 1 m/s 764 mmHg 70%
    05:00 +19°C° 0 mm 1 m/s 764 mmHg 64%
    06:00 +21°C° 0 mm 2 m/s 764 mmHg 57%
    07:00 +24°C° 0 mm 2 m/s 764 mmHg 51%
    08:00 +25°C° 0 mm 2 m/s 764 mmHg 48%
    09:00 +26°C° 0 mm 2 m/s 764 mmHg 46%
    10:00 +27°C° 0 mm 3 m/s 764 mmHg 43%
    11:00 +28°C° 0 mm 3 m/s 764 mmHg 43%
    12:00 +28°C° 0 mm 3 m/s 764 mmHg 44%
    13:00 +28°C° 0 mm 4 m/s 764 mmHg 44%
    14:00 +28°C° 0 mm 3 m/s 764 mmHg 46%
    15:00 +27°C° 0 mm 3 m/s 764 mmHg 48%
    16:00 +27°C° 0 mm 3 m/s 763 mmHg 50%
    17:00 +25°C° 0 mm 3 m/s 763 mmHg 59%
    18:00 +23°C° 0 mm 2 m/s 763 mmHg 68%
    19:00 +20°C° 0 mm 2 m/s 763 mmHg 77%
    20:00 +19°C° 0 mm 2 m/s 764 mmHg 78%
    21:00 +19°C° 0 mm 2 m/s 764 mmHg 78%
    22:00 +19°C° 0 mm 1 m/s 764 mmHg 79%
    23:00 +19°C° 0 mm 1 m/s 764 mmHg 80%

    1 Iunie, Joi

    Timp Temperatura Precipitaţii Vânt Presiune Umiditate
    00:00 +18°C° 0 mm 1 m/s 764 mmHg 80%
    01:00 +18°C° 0 mm 1 m/s 764 mmHg 81%
    02:00 +18°C° 0 mm 1 m/s 764 mmHg 80%
    03:00 +18°C° 0 mm 1 m/s 764 mmHg 79%
    04:00 +18°C° 0 mm 1 m/s 764 mmHg 78%
    05:00 +20°C° 0 mm 1 m/s 764 mmHg 68%
    06:00 +22°C° 0 mm 1 m/s 764 mmHg 58%
    07:00 +25°C° 0 mm 1 m/s 764 mmHg 49%
    08:00 +26°C° 0 mm 1 m/s 764 mmHg 44%
    09:00 +27°C° 0 mm 1 m/s 764 mmHg 40%
    10:00 +28°C° 0 mm 2 m/s 764 mmHg 36%
    11:00 +29°C° 0 mm 2 m/s 763 mmHg 36%
    12:00 +29°C° 0 mm 3 m/s 763 mmHg 36%
    13:00 +30°C° 0 mm 4 m/s 763 mmHg 36%
    14:00 +29°C° 0 mm 3 m/s 763 mmHg 39%
    15:00 +29°C° 0 mm 3 m/s 763 mmHg 42%
    16:00 +28°C° 0 mm 3 m/s 763 mmHg 44%
    17:00 +26°C° 0 mm 3 m/s 763 mmHg 52%
    18:00 +24°C° 0 mm 3 m/s 763 mmHg 59%
    19:00 +21°C° 0 mm 3 m/s 763 mmHg 66%
    20:00 +20°C° 0 mm 2 m/s 763 mmHg 68%
    21:00 +19°C° 0 mm 2 m/s 763 mmHg 70%
    22:00 +20°C° 0 mm 1 m/s 764 mmHg 72%
    23:00 +18°C° 0 mm 2 m/s 763 mmHg 72%

    2 Iunie, Vineri

    Timp Temperatura Precipitaţii Vânt Presiune Umiditate
    00:00 +18°C° 0 mm 2 m/s 763 mmHg 72%
    01:00 +18°C° 0 mm 2 m/s 763 mmHg 71%
    02:00 +17°C° 0 mm 2 m/s 763 mmHg 70%
    03:00 +17°C° 0 mm 2 m/s 763 mmHg 68%
    04:00 +17°C° 0 mm 3 m/s 762 mmHg 66%
    05:00 +19°C° 0 mm 3 m/s 763 mmHg 60%
    06:00 +22°C° 0 mm 3 m/s 763 mmHg 53%
    07:00 +25°C° 0 mm 3 m/s 763 mmHg 47%
    08:00 +26°C° 0 mm 3 m/s 763 mmHg 44%
    09:00 +28°C° 0 mm 3 m/s 763 mmHg 40%
    10:00 +29°C° 0 mm 3 m/s 763 mmHg 37%
    11:00 +29°C° 0 mm 4 m/s 763 mmHg 38%
    12:00 +30°C° 0 mm 4 m/s 762 mmHg 38%
    13:00 +30°C° 0 mm 5 m/s 762 mmHg 39%
    14:00 +30°C° 0 mm 5 m/s 762 mmHg 42%
    15:00 +29°C° 0 mm 5 m/s 762 mmHg 45%
    16:00 +28°C° 0 mm 5 m/s 761 mmHg 48%
    17:00 +26°C° 0 mm 4 m/s 761 mmHg 56%
    18:00 +25°C° 0 mm 4 m/s 762 mmHg 64%
    19:00 +22°C° 0 mm 3 m/s 762 mmHg 72%
    20:00 +21°C° 0 mm 3 m/s 762 mmHg 74%
    21:00 +20°C° 0 mm 3 m/s 762 mmHg 75%
    22:00 +19°C° 0 mm 2 m/s 762 mmHg 77%
    23:00 +19°C° 0 mm 2 m/s 762 mmHg 76%

    3 Iunie, Sâmbătă

    Timp Temperatura Precipitaţii Vânt Presiune Umiditate
    00:00 +19°C° 0 mm 2 m/s 761 mmHg 76%
    01:00 +18°C° 0 mm 2 m/s 761 mmHg 75%
    02:00 +18°C° 0 mm 2 m/s 761 mmHg 74%
    03:00 +18°C° 0 mm 3 m/s 761 mmHg 73%
    04:00 +18°C° 0 mm 3 m/s 761 mmHg 72%
    05:00 +20°C° 0 mm 3 m/s 761 mmHg 65%
    06:00 +22°C° 0 mm 3 m/s 761 mmHg 58%
    07:00 +25°C° 0 mm 2 m/s 761 mmHg 50%
    08:00 +27°C° 0 mm 3 m/s 761 mmHg 46%
    09:00 +28°C° 0 mm 3 m/s 761 mmHg 42%
    10:00 +29°C° 0 mm 3 m/s 761 mmHg 38%
    11:00 +30°C° 0 mm 3 m/s 761 mmHg 38%
    12:00 +30°C° 0 mm 4 m/s 761 mmHg 37%
    13:00 +30°C° 0 mm 4 m/s 760 mmHg 37%
    14:00 +30°C° 0 mm 4 m/s 760 mmHg 38%
    15:00 +29°C° 0 mm 4 m/s 760 mmHg 39%
    16:00 +29°C° 0 mm 4 m/s 760 mmHg 40%
    17:00 +27°C° 0 mm 3 m/s 760 mmHg 48%
    18:00 +25°C° 0 mm 3 m/s 760 mmHg 55%
    19:00 +23°C° 0 mm 2 m/s 760 mmHg 62%
    20:00 +21°C° 0 mm 2 m/s 760 mmHg 62%
    21:00 +20°C° 0 mm 2 m/s 760 mmHg 63%
    22:00 +21°C° 0 mm 1 m/s 761 mmHg 63%
    23:00 +20°C° 0 mm 1 m/s 760 mmHg 63%
    Arată mai mult